#timestamp,LO_Frequency,Hit,StdDev 
1522522815.1,286047002.8,N
1522522816.0,286047002.8,N
1522522835.8,286047001.0,N
1522522855.7,286047000.5,N
1522522875.5,286046998.5,N
1522522895.3,286047000.4,N
1522522915.2,286047002.8,N
1522522935.0,286047002.0,N
1522522935.9,286047002.0,N
1522522955.7,286047002.3,N
1522522975.6,286047000.2,N
1522522995.4,286046999.8,N
1522523015.3,286047002.6,N
1522523035.1,286047002.4,N
1522523055.8,286046999.9,N
1522523075.7,286047000.2,N
1522523095.5,286046999.9,N
1522523115.4,286047002.3,N
1522523135.2,286047002.2,N
1522523155.0,286047002.0,N
1522523155.9,286047002.0,N
1522523175.8,286047002.5,N
1522523195.6,286047002.6,N
1522523215.5,286047000.5,N
1522523235.3,286047000.3,N
1522523255.1,286047000.0,N
1522523275.9,286047000.3,N
1522523295.7,286047000.4,N
1522523315.5,286047000.3,N
1522523335.4,286047000.2,N
1522523355.2,286047002.8,N
1522523375.1,286047002.7,N
1522523376.0,286047002.7,N
1522523395.8,286047002.5,N
1522523415.6,286047000.3,N
1522523435.5,286047000.8,N
1522523455.3,286047001.1,N
1522523475.2,286046999.1,N
1522523495.9,286047000.3,N
1522523515.7,286047002.7,N
1522523535.6,286047002.2,N
1522523555.4,286047002.1,N
1522523575.2,286047002.6,N
1522523595.1,286047002.8,N
1522523596.0,286047002.8,N
1522523615.8,286047002.0,N
1522523635.7,286047001.3,N
1522523655.5,286047004.0,Y
1522523675.3,286047002.6,P
1522523695.2,286047000.9,N
1522523715.0,286046998.6,N
1522523715.9,286046998.6,N
1522523735.8,286046996.5,N
1522523755.6,286046998.9,N
1522523775.4,286046999.0,N
1522523795.3,286047001.1,N
1522523815.1,286046998.6,N
1522523835.9,286047001.0,N
1522523855.7,286047000.5,N
1522523875.5,286047000.4,N
1522523895.4,286047000.2,N
1522523915.2,286046998.2,N
1522523935.0,286046998.3,N
1522523935.9,286046998.3,N
1522523955.8,286046998.4,N
1522523975.6,286046999.4,N
1522523995.5,286046997.0,N
1522524015.3,286046997.1,N
1522524035.1,286046996.5,N
1522524055.9,286046999.5,N
1522524075.7,286046999.0,N
1522524095.5,286046999.6,N
1522524115.4,286046999.2,N
1522524135.2,286047002.3,N
1522524155.1,286047002.3,N
1522524156.0,286047002.3,N
1522524175.8,286047000.5,N
1522524195.6,286047000.8,N
1522524215.5,286046998.5,N
1522524235.3,286046998.2,N
1522524255.2,286047001.2,N
1522524275.9,286046998.9,N
1522524295.7,286046998.1,N
1522524315.6,286047000.4,N
1522524335.4,286047000.9,N
1522524355.2,286046998.2,N
1522524375.1,286047001.1,N
1522524376.0,286047001.1,N
1522524395.8,286046998.8,N
1522524415.7,286046999.5,N
1522524435.5,286046996.5,N
1522524455.3,286046997.1,N
1522524475.2,286046996.7,N
1522524495.0,286046996.8,N
1522524495.9,286046996.8,N
1522524515.8,286046996.5,N
1522524535.6,286046999.2,N
1522524555.4,286046999.2,N
1522524575.3,286046999.4,N
1522524595.1,286046999.3,N
1522524615.8,286046999.4,N
1522524635.7,286046996.5,N
1522524655.5,286047000.7,N
1522524675.4,286047000.9,N
1522524695.2,286047001.1,N
1522524715.0,286046999.7,N
1522524715.9,286046999.7,N
1522524735.8,286047002.1,N
1522524755.6,286047000.3,N
1522524775.5,286047001.1,N
1522524795.3,286047001.1,N
1522524815.1,286047000.8,N
1522524835.9,286047000.3,N
1522524855.7,286047001.1,N
1522524875.6,286046998.2,N
1522524895.4,286046999.1,N
1522524915.2,286046999.2,N
1522524935.1,286046998.7,N
1522524936.0,286046998.7,N
1522524955.8,286046999.1,N
1522524975.7,286046998.7,N
1522524995.5,286046998.3,N
1522525015.3,286046998.2,N
1522525035.2,286046999.1,N
1522525055.0,286046998.8,N
1522525055.9,286046998.8,N
1522525075.8,286046998.3,N
1522525095.6,286047001.1,N
1522525115.4,286047001.0,N
1522525135.3,286046998.5,N
1522525155.1,286047001.0,N
1522525175.9,286047002.8,N
1522525195.7,286047002.8,N
1522525215.5,286047000.3,N
1522525235.4,286047000.6,N
1522525255.2,286047001.2,N
1522525275.0,286046998.6,N
1522525275.9,286046998.6,N
1522525295.8,286046998.2,N
1522525315.6,286046998.5,N
1522525335.5,286046998.6,N
1522525355.3,286047000.6,N
1522525375.1,286047001.1,N
1522525395.9,286046998.9,N
1522525415.7,286046998.3,N
1522525435.6,286046998.8,N
1522525455.4,286047000.8,N
1522525475.2,286046998.7,N
1522525495.1,286046998.8,N
1522525496.0,286046998.8,N
1522525515.8,286046999.0,N
1522525535.6,286046996.5,N
1522525555.5,286046999.5,N
1522525575.3,286046996.5,N
1522525595.2,286046999.1,N
1522525615.9,286046999.1,N
1522525635.7,286046998.6,N
1522525655.6,286046998.8,N
1522525675.4,286046999.2,N
1522525695.3,286046997.1,N
1522525715.1,286046996.8,N
1522525716.0,286046996.8,N
1522525735.8,286046997.7,N
1522525755.7,286046996.8,N
1522525775.5,286046997.2,N
1522525795.3,286046997.1,N
1522525815.2,286046997.9,N
1522525835.0,286046997.1,N
1522525835.9,286046997.1,N
1522525855.8,286046997.4,N
1522525875.6,286046997.7,N
1522525895.4,286046997.4,N
1522525915.3,286046995.2,Y
1522525935.1,286046998.3,P
1522525955.9,286046996.9,P
1522525975.7,286046996.5,P
1522525995.6,286046995.0,Y
1522526015.4,286046998.5,P
1522526035.2,286046998.9,N
1522526055.1,286046997.4,P
1522526056.0,286046997.4,Y
1522526075.8,286046998.3,P
1522526095.6,286046998.8,P
1522526115.5,286046996.5,P
1522526135.3,286046998.7,N
1522526155.2,286046997.4,Y
1522526175.9,286046999.0,P
1522526195.7,286046999.6,N
1522526215.6,286046997.5,P
1522526235.4,286046995.1,Y
1522526255.3,286046997.8,P
1522526275.1,286046996.8,P
1522526276.0,286046996.8,P
1522526295.8,286046997.2,Y
1522526315.7,286047000.4,P
1522526335.5,286047001.9,N
1522526355.4,286047002.2,N
1522526375.2,286047002.6,N
1522526395.0,286047001.8,N
1522526395.9,286047001.8,N
